Weather History for KCAK - August, 1959

Change the Weather History Date:

Monday, August 17, 1959

  Actual Average Record
Temperature  
Mean Temperature 74 °F 71 °F  
Max Temperature 78 °F 80 °F 97 °F (1988)
Min Temperature 70 °F 61 °F 46 °F (1902)
Degree Days  
Heating Degree Days 0 0  
Month to date heating degree days 0  
Since 1 June heating degree days 55  
Since 1 July heating degree days 6  
Cooling Degree Days 9 6  
Month to date cooling degree days 111  
Year to date cooling degree days 510  
Since 1 June cooling degree days 468  
Growing Degree Days 24 (Base 50)    
Moisture  
Dew Point 68 °F    
Average Humidity 87    
Maximum Humidity 97    
Minimum Humidity 76    
Precipitation  
Precipitation 0.16 in 0.11 in - ()
Month to date precipitation 1.98  
Year to date precipitation 25.62  
Snow  
Snow 0.00 in 0.00 in - ()
Month to date snowfall 0.0  
Since 1 June snowfall 0.0  
Since 1 July snowfall 0.0  
Snow Depth -    
Sea Level Pressure  
Sea Level Pressure 29.97 in    
Wind  
Wind Speed 13 mph (SSW)    
Max Wind Speed 17 mph    
Max Gust Speed -    
Visibility 13 miles    
Events Rain    
T = Trace of Precipitation, MM = Missing Value Source: NWS Daily Summary

Daily Weather History Graph

Daily Weather History Graph

Search for Another Location

Airport or City:

Trip Planner

Search our weather history database for the weather conditions in past years. The results will help you decide how hot, cold, wet, or windy it might be!

Date:

Astronomy

Aug. 17, 1959 Rise Set
Actual Time 6:36 AM EDT 8:22 PM EDT
Civil Twilight 6:07 AM EDT 8:51 PM EDT
Nautical Twilight 5:31 AM EDT 9:26 PM EDT
Astronomical Twilight 4:53 AM EDT 10:05 PM EDT
Moon 7:41 PM EDT (8/17) 5:36 AM EDT (8/17)
Length of Visible Light 14h 43m
Length of Day
13h 45m
Waxing Gibbous, 99% of the Moon is Illuminated
Aug 17
Waxing Gibbous
Aug 18
Full
Aug 26
Last Quarter
Sep 2
New
Sep 9
First Quarter

Hourly Weather History & Observations

Time (EDT) Temp. Dew Point Humidity Pressure Visibility Wind Dir Wind Speed Gust Speed Precip Events Conditions
12:00 AM 73.0 °F 68.0 °F 84% 29.99 in 15.0 mi SSW 11.5 mph - N/A   Drizzle
1:00 AM 72.0 °F 64.9 °F 78% 29.98 in 15.0 mi SSW 11.5 mph - N/A   Drizzle
2:00 AM 71.1 °F 66.0 °F 84% 29.97 in 15.0 mi South 11.5 mph - N/A   Drizzle
3:00 AM 70.0 °F 66.0 °F 87% 29.96 in 15.0 mi South 17.3 mph - N/A   Drizzle
4:00 AM 71.1 °F 66.0 °F 84% 29.96 in 15.0 mi SSW 15.0 mph - N/A   Drizzle
5:00 AM 70.0 °F 66.0 °F 87% 29.96 in 15.0 mi South 11.5 mph - N/A   Drizzle
6:00 AM 70.0 °F 66.0 °F 87% 29.96 in 15.0 mi South 11.5 mph - N/A   Drizzle
7:00 AM 70.0 °F 66.0 °F 87% 29.96 in 15.0 mi South 11.5 mph - N/A   Drizzle
8:00 AM 71.1 °F 66.9 °F 87% 29.97 in 15.0 mi South 12.7 mph - N/A   Drizzle
9:00 AM 71.1 °F 68.0 °F 90% 29.99 in 7.0 mi South 16.1 mph - N/A Rain Light Rain Showers
10:00 AM 73.0 °F 70.0 °F 90% 29.99 in 10.0 mi SW 13.8 mph - N/A Rain Light Rain Showers
11:00 AM 73.0 °F 69.1 °F 87% 29.99 in 10.0 mi SSW 16.1 mph - N/A Rain Light Rain Showers
12:00 PM 70.0 °F 69.1 °F 97% 30.00 in 10.5 mi SW 16.1 mph - 0.08 in Rain Light Rain Showers
1:00 PM 71.1 °F 70.0 °F 96% 29.99 in 6.0 mi SSW 13.8 mph - 0.08 in Rain Light Rain Showers
2:00 PM 73.0 °F 71.1 °F 93% 29.97 in 10.0 mi South 11.5 mph - N/A   Drizzle
3:00 PM 75.0 °F 70.0 °F 84% 29.96 in 15.0 mi SSW 12.7 mph - N/A   Drizzle
4:00 PM 78.1 °F 70.0 °F 76% 29.95 in 15.0 mi SSW 17.3 mph - N/A   Drizzle
5:00 PM 75.9 °F 69.1 °F 79% 29.94 in 15.0 mi SSW 16.1 mph - N/A   Drizzle
6:00 PM 75.0 °F 69.1 °F 82% 29.96 in 15.0 mi SSW 15.0 mph - N/A   Drizzle
7:00 PM 73.9 °F 68.0 °F 82% 29.96 in 15.0 mi South 15.0 mph - N/A   Drizzle
8:00 PM 72.0 °F 68.0 °F 87% 29.95 in 15.0 mi South 16.1 mph - N/A   Drizzle
9:00 PM 70.0 °F 68.0 °F 93% 29.95 in 15.0 mi South 15.0 mph - N/A   Drizzle
10:00 PM 70.0 °F 68.0 °F 93% 29.96 in 10.0 mi SSW 11.5 mph - N/A   Drizzle
11:00 PM 70.0 °F 68.0 °F 93% 29.96 in 7.0 mi SSW 10.4 mph - N/A   Drizzle